Location: Aulnoy
(48.8410°N, 3.0967°E)
Time: 19:38:09
(UTC+00:00)

DMSP B5D2-2 - Pass Details

Date: 09 February 2023
Orbit: 788 x 805 km, 98.3° (Epoch: 26 March)

Event Time Altitude Azimuth Distance (km) Brightness Sun altitude
Rises 18:01:22 0° 12° (NNE) 3,331 7.1 -10.9°
Reaches altitude 10° 18:03:43 10° 10° (N) 2,394 6.4 -11.2°
Maximum altitude 18:08:58 69° 288° (WNW) 858 4.4 -12.1°
Drops below altitude 10° 18:14:10 10° 206° (SSW) 2,366 7.0 -12.9°
Sets 18:16:30 0° 204° (SSW) 3,289 7.7 -13.3°
